COSMOS 2251 DEB, 47116

Orbit data source: Space-Track

COSMOS 2251 DEB, 47116 is space debris in LEO originally from a launch on Wed, 16 Jun 1993 UTC launched from the Plesetsk Missile And Space Complex (PKMTR). The debris from Iridium 33, an American commercial communications satellite, has been tracked extensively since its accidental collision with the defunct Russian satellite Cosmos 2251 in 2009. This event, occurring at high speed in low Earth orbit (LEO), generated thousands of pieces of space debris, significantly increasing the risk of further collisions. The Iridium 33 debris cloud has impacted space traffic management and orbital debris mitigation strategies, making it a subject of ongoing study in space situational awareness.

Loading next visibility...
Identifier
47116, 1993-036BYJ
Orbit
LEO
Country
Flag of CISCIS
Related business
Manufacturer
Unknown
Mission
Spacecraft
Bus & Motor
Unknown
Mass
Unknown
Launch date (UTC)
1993-06-16 (33 years ago)
Launch vehicle
Unknown
Launch site
Plesetsk Missile And Space Complex (PKMTR)
Object type
Payload
Rocket body
Debris
Shape & HBR
Unknown shape, 0.1 m
Radar Cross Section
Small (<0.1 m²)

Expand to show TLE details & history
Last TLE update: 5 days ago

TLE from 5 days ago
0 COSMOS 2251 DEB
1 47116U 93036BYJ 26101.98123691  .00017615  00000-0  12184-2 0  9997
2 47116  74.0224 355.4519 0017396  80.9601 290.7379 15.05556168613168
Epoch: 2026-04-11T23:32Z
TLE epoch observation values (Epoch: 2026-04-11T23:32:58.869Z)
Latitude
11.01701°
Longitude
165.19186°
Altitude
547.483 km
Speed
7.592 km/s
True Right ascension
23h 54m 31s
True Declination
10° 57' 03"
Sunlit
Object was in daylight at epoch
Visualization orbit readout
Latitude
Unknown
Longitude
Unknown
Altitude
Unknown
Speed
Unknown
Apparent Right ascension
Unknown
Apparent Declination
Unknown
Sunlit
N/A
Visualization observer readout
Local Sidereal Time
10:42:59
Azimuth
Unknown
Elevation
Unknown
Doppler factor
Unknown
Orbital elements
Apogee altitude
559.395 km
Perigee altitude
535.3 km
Semi-major axis
6,925.485 km
Eccentricity
0.00174
Inclination
74.0224°
RAAN
355.4519°
Arg. of periapsis
80.9601°
True anomaly
290.55133°
Mean anomaly
290.7379°
Eccentric anomaly
290.64463°
Mean motion
3.76589 °/min
Orbital period
95.59 mins
BSTAR
0.0012184
Loading maneuver chart data...
Computing Atmospheric mass density...

Documentation

Showing up to 5 results
|